TimeEST,TemperatureF,Dew PointF,Humidity,Sea Level PressureIn,VisibilityMPH,Wind Direction,Wind SpeedMPH,Gust SpeedMPH,PrecipitationIn,Events,Conditions,WindDirDegrees,DateUTC
12:15 AM,37.4,26.6,65,30.28,10.0,West,4.6,-,N/A,,Clear,280,2012-11-30 05:15:00
12:35 AM,37.4,26.6,65,30.28,10.0,WNW,4.6,-,N/A,,Clear,290,2012-11-30 05:35:00
12:55 AM,37.4,26.6,65,30.28,10.0,West,5.8,-,N/A,,Clear,280,2012-11-30 05:55:00
1:15 AM,37.4,26.6,65,30.29,10.0,WNW,4.6,-,N/A,,Clear,290,2012-11-30 06:15:00
1:35 AM,37.4,24.8,60,30.29,10.0,West,4.6,-,N/A,,Clear,270,2012-11-30 06:35:00
1:55 AM,37.4,24.8,60,30.29,10.0,WNW,4.6,-,N/A,,Clear,290,2012-11-30 06:55:00
2:15 AM,35.6,24.8,65,30.29,10.0,West,6.9,-,N/A,,Clear,270,2012-11-30 07:15:00
2:35 AM,35.6,24.8,65,30.29,10.0,West,5.8,-,N/A,,Clear,270,2012-11-30 07:35:00
2:55 AM,35.6,24.8,65,30.28,10.0,West,6.9,-,N/A,,Clear,280,2012-11-30 07:55:00
3:15 AM,35.6,24.8,65,30.29,10.0,West,5.8,-,N/A,,Clear,280,2012-11-30 08:15:00
3:35 AM,35.6,24.8,65,30.29,10.0,West,5.8,-,N/A,,Clear,280,2012-11-30 08:35:00
3:55 AM,35.6,24.8,65,30.30,10.0,WNW,4.6,-,N/A,,Clear,290,2012-11-30 08:55:00
4:15 AM,35.6,24.8,65,30.30,10.0,West,4.6,-,N/A,,Clear,270,2012-11-30 09:15:00
4:35 AM,35.6,24.8,65,30.31,10.0,WNW,4.6,-,N/A,,Clear,300,2012-11-30 09:35:00
4:55 AM,35.6,23.0,60,30.31,10.0,NW,3.5,-,N/A,,Clear,310,2012-11-30 09:55:00
5:15 AM,35.6,23.0,60,30.32,10.0,NNW,3.5,-,N/A,,Clear,330,2012-11-30 10:15:00
5:35 AM,35.6,23.0,60,30.33,10.0,NNW,4.6,-,N/A,,Clear,330,2012-11-30 10:35:00
5:55 AM,35.6,24.8,65,30.34,10.0,NW,4.6,-,N/A,,Clear,320,2012-11-30 10:55:00
6:15 AM,35.6,23.0,60,30.35,10.0,NNW,5.8,-,N/A,,Clear,340,2012-11-30 11:15:00
6:35 AM,35.6,24.8,65,30.36,10.0,North,4.6,-,N/A,,Clear,360,2012-11-30 11:35:00
6:55 AM,35.6,24.8,65,30.36,9.0,Calm,Calm,-,N/A,,Clear,0,2012-11-30 11:55:00
7:15 AM,37.4,24.8,60,30.38,9.0,Calm,Calm,-,N/A,,Clear,0,2012-11-30 12:15:00
7:35 AM,37.4,24.8,60,30.38,9.0,North,3.5,-,N/A,,Clear,10,2012-11-30 12:35:00
7:55 AM,37.4,24.8,60,30.38,9.0,NNE,5.8,-,N/A,,Clear,20,2012-11-30 12:55:00
8:15 AM,39.2,24.8,56,30.39,10.0,North,6.9,-,N/A,,Clear,360,2012-11-30 13:15:00
8:35 AM,39.2,26.6,61,30.39,9.0,NE,5.8,-,N/A,,Clear,50,2012-11-30 13:35:00
8:55 AM,39.2,24.8,56,30.40,10.0,NE,6.9,-,N/A,,Clear,40,2012-11-30 13:55:00
9:15 AM,39.2,24.8,56,30.41,10.0,NNE,9.2,-,N/A,,Partly Cloudy,20,2012-11-30 14:15:00
9:35 AM,39.2,26.6,61,30.42,10.0,NNE,6.9,-,N/A,,Partly Cloudy,20,2012-11-30 14:35:00
9:55 AM,39.2,26.6,61,30.41,8.0,ENE,6.9,-,N/A,,Partly Cloudy,70,2012-11-30 14:55:00
10:15 AM,39.2,26.6,61,30.41,9.0,ENE,8.1,-,N/A,,Partly Cloudy,60,2012-11-30 15:15:00
10:35 AM,39.2,26.6,61,30.41,8.0,NE,8.1,-,N/A,,Partly Cloudy,40,2012-11-30 15:35:00
10:55 AM,39.2,26.6,61,30.40,9.0,ENE,4.6,-,N/A,,Clear,60,2012-11-30 15:55:00
11:15 AM,39.2,28.4,65,30.40,9.0,NE,5.8,-,N/A,,Clear,50,2012-11-30 16:15:00
11:35 AM,39.2,28.4,65,30.40,9.0,ENE,5.8,-,N/A,,Partly Cloudy,70,2012-11-30 16:35:00
11:55 AM,39.2,28.4,65,30.40,9.0,NNE,6.9,-,N/A,,Partly Cloudy,20,2012-11-30 16:55:00
12:15 PM,39.2,28.4,65,30.40,10.0,ENE,4.6,-,N/A,,Partly Cloudy,60,2012-11-30 17:15:00
12:35 PM,39.2,28.4,65,30.40,10.0,NNE,5.8,-,N/A,,Partly Cloudy,20,2012-11-30 17:35:00
12:55 PM,39.2,28.4,65,30.40,10.0,ENE,6.9,-,N/A,,Scattered Clouds,60,2012-11-30 17:55:00
1:15 PM,39.2,28.4,65,30.40,10.0,East,4.6,-,N/A,,Partly Cloudy,100,2012-11-30 18:15:00
1:35 PM,39.2,28.4,65,30.40,10.0,East,3.5,-,N/A,,Clear,90,2012-11-30 18:35:00
1:55 PM,39.2,28.4,65,30.41,10.0,SE,3.5,-,N/A,,Clear,130,2012-11-30 18:55:00
2:15 PM,39.2,28.4,65,30.41,10.0,East,4.6,-,N/A,,Clear,90,2012-11-30 19:15:00
2:35 PM,39.2,30.2,70,30.42,10.0,ESE,4.6,-,N/A,,Clear,120,2012-11-30 19:35:00
2:55 PM,39.2,30.2,70,30.42,10.0,East,3.5,-,N/A,,Clear,100,2012-11-30 19:55:00
3:15 PM,39.2,28.4,65,30.42,10.0,East,4.6,-,N/A,,Clear,80,2012-11-30 20:15:00
3:35 PM,39.2,28.4,65,30.42,10.0,ENE,5.8,-,N/A,,Partly Cloudy,70,2012-11-30 20:35:00
3:55 PM,37.4,26.6,65,30.42,10.0,ENE,8.1,-,N/A,,Mostly Cloudy,70,2012-11-30 20:55:00
4:15 PM,37.4,26.6,65,30.43,10.0,East,5.8,-,N/A,,Scattered Clouds,80,2012-11-30 21:15:00
4:35 PM,35.6,26.6,70,30.44,10.0,ENE,9.2,-,N/A,,Mostly Cloudy,60,2012-11-30 21:35:00
4:55 PM,33.8,28.4,81,30.44,10.0,ENE,9.2,-,N/A,,Mostly Cloudy,60,2012-11-30 21:55:00
5:15 PM,33.8,28.4,81,30.45,10.0,ENE,8.1,-,N/A,,Mostly Cloudy,60,2012-11-30 22:15:00
5:35 PM,32.0,28.4,87,30.45,10.0,NE,6.9,-,N/A,,Scattered Clouds,40,2012-11-30 22:35:00
5:55 PM,32.0,28.4,87,30.46,10.0,ENE,6.9,-,N/A,,Scattered Clouds,60,2012-11-30 22:55:00
6:15 PM,32.0,28.4,87,30.47,10.0,ENE,6.9,-,N/A,,Overcast,60,2012-11-30 23:15:00
6:35 PM,32.0,28.4,87,30.48,10.0,NE,5.8,-,N/A,,Overcast,50,2012-11-30 23:35:00
6:55 PM,32.0,26.6,80,30.48,10.0,ENE,6.9,-,N/A,,Overcast,60,2012-11-30 23:55:00
7:15 PM,32.0,24.8,75,30.49,10.0,ENE,4.6,-,N/A,,Overcast,60,2012-12-01 00:15:00
7:35 PM,32.0,23.0,69,30.48,10.0,NE,6.9,-,N/A,,Overcast,50,2012-12-01 00:35:00
7:55 PM,32.0,21.2,64,30.48,10.0,ENE,6.9,-,N/A,,Overcast,60,2012-12-01 00:55:00
8:15 PM,32.0,19.4,60,30.48,10.0,ENE,5.8,-,N/A,,Overcast,70,2012-12-01 01:15:00
8:35 PM,32.0,19.4,60,30.48,10.0,ENE,9.2,-,N/A,,Overcast,60,2012-12-01 01:35:00
8:55 PM,32.0,19.4,60,30.48,10.0,ENE,9.2,-,N/A,,Overcast,70,2012-12-01 01:55:00
9:15 PM,32.0,19.4,60,30.48,10.0,ENE,8.1,-,N/A,,Overcast,70,2012-12-01 02:15:00
9:35 PM,32.0,19.4,60,30.49,10.0,East,8.1,-,N/A,,Overcast,90,2012-12-01 02:35:00
9:55 PM,32.0,21.2,64,30.49,10.0,ENE,6.9,-,N/A,,Overcast,70,2012-12-01 02:55:00
10:15 PM,32.0,21.2,64,30.48,10.0,ENE,10.4,-,N/A,,Overcast,70,2012-12-01 03:15:00
10:35 PM,32.0,21.2,64,30.49,10.0,East,8.1,-,N/A,,Overcast,80,2012-12-01 03:35:00
10:55 PM,32.0,21.2,64,30.49,10.0,ENE,8.1,-,N/A,,Overcast,70,2012-12-01 03:55:00
11:15 PM,32.0,23.0,69,30.49,10.0,ENE,6.9,-,N/A,,Overcast,70,2012-12-01 04:15:00
11:35 PM,32.0,21.2,64,30.49,10.0,ENE,6.9,-,N/A,,Overcast,70,2012-12-01 04:35:00
11:55 PM,32.0,21.2,64,30.49,10.0,East,6.9,-,N/A,,Overcast,90,2012-12-01 04:55:00